#timestamp,LO_Frequency,Hit,StdDev 
1610794815.9,286046996.9,N
1610794835.7,286046999.8,N
1610794855.6,286047002.8,N
1610794875.4,286047004.0,N
1610794895.2,286047006.9,N
1610794915.1,286047002.9,N
1610794916.0,286047002.9,N
1610794935.8,286046999.9,N
1610794985.7,286047000.9,E
1610794995.6,286046999.3,N
1610795015.5,286046997.3,P
1610795035.3,286046997.9,N
1610795055.1,286046995.0,Y
1610795075.9,286046996.7,P
1610795095.7,286046995.7,P
1610795115.5,286046995.1,P
1610795135.4,286046995.8,Y
1610795155.2,286046999.1,P
1610795175.1,286046997.3,N
1610795176.0,286046997.3,N
1610795195.8,286047002.0,N
1610795215.6,286047001.7,N
1610795235.5,286047002.9,N
1610795255.3,286047006.0,N
1610795275.2,286047006.4,N
1610795295.9,286047007.4,N
1610795315.7,286047004.7,N
1610795335.6,286047005.8,N
1610795355.4,286047005.0,N
1610795375.2,286047005.3,N
1610795395.1,286047006.3,N
1610795396.0,286047006.3,N
1610795415.8,286047012.4,Y
1610795435.7,286047012.1,P
1610795455.5,286047016.7,P
1610795475.3,286047016.2,N
1610795495.2,286047014.6,N
1610795515.0,286047010.1,N
1610795515.9,286047010.1,N
1610795535.8,286047004.5,N
1610795555.6,286047004.2,N
1610795575.4,286047002.6,N
1610795595.3,286046998.6,N
1610795615.1,286046999.3,N
1610795635.8,286046999.5,N
1610795655.7,286046999.6,N
1610795675.5,286046997.1,N
1610795695.4,286047000.4,N
1610795715.2,286047005.9,N
1610795735.0,286047003.1,N
1610795735.9,286047003.1,N
1610795755.8,286047007.0,N
1610795775.6,286047011.2,N
1610795795.5,286047010.3,N
1610795815.3,286047006.5,N
1610795835.1,286047006.1,N
1610795855.9,286047005.2,N
1610795875.7,286047005.6,N
1610795895.6,286047003.5,N
1610795915.4,286047005.6,N
1610795935.2,286047004.6,N
1610795955.1,286047007.5,N
1610795956.0,286047007.5,N
1610795975.8,286047004.5,N
1610795995.6,286047007.0,N
1610796015.5,286047009.2,N
1610796035.3,286047006.1,N
1610796055.2,286047007.4,N
1610796075.9,286047004.7,N
1610796095.7,286047005.0,N
1610796115.6,286047006.9,N
1610796135.4,286047007.0,N
1610796155.3,286047007.1,N
1610796175.1,286047004.1,N
1610796176.0,286047004.1,N
1610796195.8,286047000.8,N
1610796215.7,286047002.5,N
1610796235.5,286046998.1,N
1610796255.3,286047000.8,N
1610796275.2,286047002.4,N
1610796295.0,286046999.7,N
1610796295.9,286046999.7,N
1610796315.8,286046999.9,N
1610796335.6,286047002.5,N
1610796355.4,286046998.3,N
1610796375.3,286047001.6,N
1610796395.1,286047013.3,Y
1610796415.9,286047006.4,P
1610796435.7,286047003.5,N
1610796455.5,286047003.3,N
1610796475.4,286047004.3,Y
1610796495.2,286046996.5,P
1610796515.1,286046995.2,N
1610796516.0,286046995.2,N
1610796535.8,286047000.2,N
1610796555.6,286047001.4,N
1610796575.5,286046998.3,N
1610796595.3,286046995.2,N
1610796615.1,286046996.1,N
1610796635.9,286046993.3,N
1610796655.7,286046995.3,N
1610796675.6,286046995.8,N
1610796695.4,286046993.5,N
1610796715.2,286046997.1,N
1610796735.1,286046997.6,N
1610796736.0,286046997.6,N
1610796755.8,286046990.4,Y
1610796775.7,286046995.2,P
1610796795.5,286046995.4,P
1610796815.3,286046995.4,P
1610796835.2,286047002.4,Y
1610796855.0,286047007.1,P
1610796855.9,286047007.1,N
1610796875.8,286047004.5,N
1610796895.6,286047003.1,N
1610796915.4,286047001.9,N
1610796935.3,286047004.3,N
1610796955.1,286047005.4,N
1610796975.8,286047005.4,N
1610796995.7,286047006.2,N
1610797015.5,286047007.2,N
1610797035.4,286047003.4,N
1610797055.2,286047003.5,N
1610797075.0,286046998.8,N
1610797075.9,286046998.8,N
1610797095.8,286047000.7,N
1610797115.6,286047006.7,N
1610797135.4,286047009.2,N
1610797155.3,286047005.8,N
1610797175.1,286047000.6,N
1610797195.9,286046996.5,N
1610797215.7,286046996.6,N
1610797235.5,286047000.0,N
1610797255.4,286046999.4,N
1610797275.2,286046997.3,N
1610797295.0,286046992.7,N
1610797296.0,286046992.7,N
1610797315.8,286046990.3,N
1610797335.6,286046990.3,N
1610797355.5,286046995.0,N
1610797375.3,286047003.3,N
1610797395.1,286047001.3,N
1610797415.9,286046999.5,N
1610797435.7,286046996.2,N
1610797455.6,286046991.0,N
1610797475.4,286046988.1,N
1610797495.2,286046986.9,N
1610797515.1,286046989.2,N
1610797516.0,286046989.2,N
1610797535.8,286046989.9,N
1610797555.6,286046990.8,N
1610797575.5,286046989.0,N
1610797595.3,286046989.7,N
1610797615.2,286046991.6,N
1610797635.9,286046992.8,N
1610797655.7,286046992.6,N
1610797675.6,286046991.1,N
1610797695.4,286046989.9,N
1610797715.3,286046988.8,N
1610797735.1,286046994.6,N
1610797736.0,286046994.6,N
1610797755.8,286046999.2,N
1610797775.7,286046995.8,N
1610797795.5,286046990.7,N
1610797815.3,286046989.9,N
1610797835.2,286046992.2,N
1610797855.0,286046995.9,N
1610797855.9,286046995.9,N
1610797875.8,286046993.2,N
1610797895.6,286046992.1,N
1610797915.4,286046990.5,N
1610797935.3,286046992.9,N
1610797955.1,286046993.2,N
1610797975.9,286046991.4,Y
1610797995.7,286047008.4,P
1610798015.5,286047004.6,N
1610798035.4,286047000.1,N
1610798055.2,286047004.4,N
1610798075.0,286047003.7,N
1610798075.9,286047003.7,N
1610798095.8,286047001.7,N
1610798115.6,286047000.2,N
1610798135.5,286046997.1,N
1610798155.3,286046996.6,N
1610798175.1,286046998.7,N
1610798195.9,286047003.0,N
1610798215.7,286047007.3,N
1610798235.5,286047012.5,N
1610798255.4,286047014.7,N
1610798275.2,286047015.1,N
1610798295.1,286047013.5,N
1610798296.0,286047013.5,N
1610798315.8,286047009.4,N
1610798335.6,286047004.9,N
1610798355.5,286047005.7,N
1610798375.3,286047005.1,N
1610798395.2,286047003.1,N
